Location: ??????
(41.3747°N, 22.5491°E)
Time: 06:01:45
(UTC+00:00)

CENTAUR R/B - Pass Details

Date: 01 December 2020
Orbit: 750 x 1438 km, 63.4° (Epoch: 11 January)

Event Time Altitude Azimuth Distance (km) Brightness Sun altitude
Rises 16:10:50 0° 176° (S) 3,310 5.5 -12.8°
Reaches altitude 10° 16:13:29 10° 163° (SSE) 2,454 4.6 -13.3°
Maximum altitude 16:18:06 26° 109° (ESE) 1,726 3.4 -14.1°
Enters shadow 16:20:30 20° 76° (ENE) 2,043 3.5 -14.6°
